#timestamp,LO_Frequency,Hit,StdDev 
1567774815.8,286046999.9,N
1567774835.7,286046999.9,N
1567774855.5,286047000.3,N
1567774875.3,286047000.9,N
1567774895.2,286046999.9,N
1567774915.0,286047000.6,N
1567774915.9,286047000.6,N
1567774935.8,286046999.7,N
1567774955.6,286047000.2,N
1567774975.4,286047000.2,N
1567774995.3,286047000.1,N
1567775015.1,286047000.3,N
1567775035.9,286046999.8,N
1567775055.7,286047002.7,N
1567775075.5,286047000.0,N
1567775095.4,286047002.7,N
1567775115.2,286047002.2,N
1567775135.0,286047002.2,N
1567775135.9,286047002.2,N
1567775155.8,286047002.2,N
1567775175.6,286047002.4,N
1567775195.5,286047002.5,N
1567775215.3,286047002.2,N
1567775235.1,286046999.8,N
1567775255.9,286046999.9,N
1567775275.7,286047000.4,N
1567775295.6,286047000.6,N
1567775315.4,286047000.2,N
1567775335.2,286047000.4,N
1567775355.1,286047001.0,N
1567775356.0,286047001.0,N
1567775375.8,286047000.0,N
1567775395.7,286047000.3,N
1567775415.5,286047002.4,N
1567775435.3,286047001.6,N
1567775455.2,286047002.7,N
1567775475.0,286046999.9,N
1567775475.9,286046999.9,N
1567775495.9,286046999.7,N
1567775515.7,286047002.5,N
1567775535.5,286047004.4,Y
1567775555.4,286047002.5,P
1567775575.2,286047002.5,P
1567775595.1,286047002.3,P
1567775596.0,286047002.3,Y
1567775615.8,286046999.3,P
1567775635.6,286046998.9,N
1567775655.5,286046998.8,N
1567775675.3,286046999.5,N
1567775695.2,286046999.3,N
1567775715.9,286046998.3,N
1567775735.7,286046998.2,N
1567775755.6,286047000.8,N
1567775775.4,286047001.0,N
1567775795.3,286046998.3,N
1567775815.1,286046998.6,N
1567775835.8,286046999.0,N
1567775855.7,286046998.7,N
1567775875.5,286046999.1,N
1567775895.4,286046998.6,N
1567775915.2,286046998.3,N
1567775935.0,286047001.2,N
1567775935.9,286047001.2,N
1567775955.8,286046998.5,N
1567775975.6,286047001.0,N
1567775995.4,286047000.8,N
1567776015.3,286046998.2,N
1567776035.1,286047001.2,N
1567776055.9,286046998.1,N
1567776075.7,286047000.9,N
1567776095.5,286047000.3,N
1567776115.4,286047001.2,N
1567776135.2,286047000.4,N
1567776155.1,286046999.9,N
1567776156.0,286046999.9,N
1567776175.8,286047000.5,N
1567776195.6,286046998.6,N
1567776215.5,286047000.7,N
1567776235.3,286046999.0,N
1567776255.1,286046999.6,N
1567776275.9,286046999.1,N
1567776295.7,286046997.2,N
1567776315.6,286046996.9,N
1567776335.4,286046997.3,N
1567776355.2,286046996.6,N
1567776375.1,286046998.9,N
1567776376.0,286046998.9,N
1567776395.8,286046999.1,N
1567776415.7,286046999.5,N
1567776435.5,286046998.3,N
1567776455.3,286046998.8,N
1567776475.2,286046999.3,N
1567776495.0,286047000.0,N
1567776495.9,286047000.0,N
1567776515.7,286046998.5,N
1567776535.6,286046998.6,N
1567776555.4,286046998.3,N
1567776575.3,286046999.5,N
1567776595.1,286046999.4,N
1567776615.8,286046996.9,N
1567776635.7,286046997.0,N
1567776655.5,286046999.5,N
1567776675.4,286046996.7,N
1567776695.2,286046996.8,N
1567776715.0,286046997.7,N
1567776715.9,286046997.7,N
1567776735.8,286046997.1,N
1567776755.6,286046997.0,N
1567776775.4,286046997.0,N
1567776795.3,286046996.8,N
1567776815.1,286046996.8,N
1567776835.9,286046996.8,N
1567776855.7,286046996.9,N
1567776875.5,286046997.1,N
1567776895.4,286046997.5,N
1567776915.2,286046997.9,N
1567776935.0,286046995.3,Y
1567776936.0,286046995.3,P
1567776955.8,286046996.5,N
1567776975.6,286046999.2,N
1567776995.5,286046999.1,N
1567777015.3,286046998.7,N
1567777035.1,286046998.6,N
1567777055.9,286046998.6,N
1567777075.7,286046998.6,N
1567777095.6,286046998.6,N
1567777115.4,286046998.1,N
1567777135.2,286046998.5,N
1567777155.1,286046998.6,N
1567777156.0,286046998.6,N
1567777175.8,286046999.1,N
1567777195.6,286046998.7,N
1567777215.5,286046998.2,N
1567777235.3,286046998.8,N
1567777255.2,286047001.1,N
1567777275.9,286047000.7,N
1567777295.7,286047001.1,N
1567777315.6,286046998.1,N
1567777335.4,286046998.4,N
1567777355.2,286046999.0,N
1567777375.1,286046998.4,N
1567777376.0,286046998.4,N
1567777395.8,286046998.6,N
1567777415.7,286046998.4,N
1567777435.5,286046998.6,N
1567777455.3,286046998.2,N
1567777475.2,286046998.9,N
1567777495.0,286046998.5,N
1567777495.9,286046998.5,N
1567777515.8,286046999.0,N
1567777535.6,286046998.1,N
1567777555.4,286046998.6,N
1567777575.3,286046999.3,N
1567777595.1,286046998.8,N
1567777615.8,286046996.5,Y
1567777635.7,286046998.6,P
1567777655.5,286047000.3,N
1567777675.4,286047000.3,N
1567777695.2,286046998.6,N
1567777715.0,286047000.7,N
1567777715.9,286047000.7,N
1567777735.8,286047000.6,N
1567777755.6,286047000.3,N
1567777775.5,286047000.6,N
1567777795.3,286047000.9,N
1567777815.1,286047000.1,N
1567777835.9,286047000.8,N
1567777855.7,286047000.8,N
1567777875.5,286047001.1,N
1567777895.4,286047001.0,N
1567777915.2,286047001.0,N
1567777935.1,286047000.1,N
1567777936.0,286047000.1,N
1567777955.8,286046999.8,N
1567777975.6,286047000.1,N
1567777995.5,286046999.8,N
1567778015.3,286047002.5,Y
1567778035.2,286047000.4,P
1567778055.9,286047000.6,P
1567778075.7,286046998.1,P
1567778095.6,286047000.5,N
1567778115.4,286047000.0,N
1567778135.3,286047001.0,N
1567778155.1,286047000.0,N
1567778175.8,286047000.0,N
1567778195.7,286047000.7,N
1567778215.5,286047000.3,N
1567778235.4,286047000.3,N
1567778255.2,286046998.2,N
1567778275.0,286047000.6,N
1567778275.9,286047000.6,N
1567778295.8,286047000.6,N
1567778315.6,286047000.3,N
1567778335.5,286046999.9,N
1567778355.3,286047000.2,N
1567778375.1,286046999.9,N
1567778395.9,286046999.8,N
